| time (UTC) | temp F | wind direction | speed knots | gust knots | rain 1hr in | rain 24hr in | rain mn in | humidity % | barometer mb |
| 20260507000014 | 46 | 295 | 0.0 | 0.0 | 0.00 | 0.37 | 0.37 | 90 | 1010.8 |
| 20260506234511 | 46 | 265 | 0.0 | 0.0 | 0.00 | 0.37 | 0.37 | 90 | 1010.6 |
| 20260506233011 | 46 | 269 | 0.0 | 0.0 | 0.00 | 0.37 | 0.37 | 90 | 1010.5 |
| 20260506231512 | 47 | 231 | 0.0 | 0.0 | 0.00 | 0.37 | 0.37 | 90 | 1010.4 |
| 20260506230006 | 47 | 271 | 0.0 | 0.0 | 0.00 | 0.37 | 0.37 | 90 | 1010.1 |
| 20260506224504 | 47 | 290 | 0.0 | 0.0 | 0.00 | 0.38 | 0.37 | 90 | 1010.1 |
| 20260506223002 | 47 | 146 | 0.0 | 0.0 | 0.00 | 0.38 | 0.37 | 91 | 1009.7 |
| 20260506221559 | 47 | 252 | 0.0 | 0.0 | 0.00 | 0.38 | 0.37 | 92 | 1009.6 |
| 20260506214610 | 48 | 282 | 0.0 | 0.0 | 0.00 | 0.38 | 0.37 | 92 | 1009.6 |
| 20260506213055 | 48 | 266 | 0.0 | 0.0 | 0.02 | 0.38 | 0.37 | 92 | 1009.2 |
| 20260506211554 | 48 | 283 | 0.0 | 0.0 | 0.02 | 0.38 | 0.37 | 93 | 1008.9 |
| 20260506210054 | 48 | 63 | 0.0 | 0.0 | 0.02 | 0.38 | 0.37 | 94 | 1008.6 |
| 20260506204559 | 48 | 172 | 0.0 | 0.0 | 0.03 | 0.39 | 0.37 | 94 | 1008.4 |
| 20260506203052 | 49 | 233 | 0.0 | 0.0 | 0.02 | 0.37 | 0.35 | 94 | 1008.0 |
| 20260506201550 | 49 | 179 | 0.0 | 0.0 | 0.03 | 0.37 | 0.35 | 94 | 1007.4 |
| 20260506200045 | 49 | 351 | 0.0 | 0.0 | 0.03 | 0.37 | 0.35 | 94 | 1007.5 |
| 20260506194557 | 50 | 114 | 0.0 | 0.0 | 0.02 | 0.46 | 0.34 | 94 | 1007.5 |
| 20260506193043 | 50 | 106 | 0.0 | 0.0 | 0.01 | 0.45 | 0.33 | 94 | 1007.3 |
| 20260506191541 | 50 | 281 | 0.0 | 0.0 | 0.01 | 0.44 | 0.32 | 93 | 1007.2 |
| 20260506190043 | 50 | 261 | 0.0 | 0.0 | 0.01 | 0.44 | 0.32 | 93 | 1006.9 |
| 20260506184539 | 51 | 293 | 0.0 | 0.0 | 0.02 | 0.44 | 0.32 | 93 | 1006.6 |
| 20260506183039 | 52 | 304 | 0.0 | 0.0 | 0.02 | 0.44 | 0.32 | 92 | 1006.5 |
| 20260506181543 | 53 | 249 | 0.0 | 0.0 | 0.01 | 0.43 | 0.31 | 91 | 1006.1 |
| 20260506180042 | 55 | 258 | 0.0 | 0.0 | 0.01 | 0.43 | 0.31 | 90 | 1005.8 |
| 20260506174537 | 59 | 225 | 0.0 | 0.0 | 0.00 | 0.42 | 0.30 | 87 | 1005.4 |
| 20260506173036 | 60 | 227 | 0.0 | 0.0 | 0.00 | 0.42 | 0.30 | 88 | 1005.0 |
| 20260506171550 | 60 | 280 | 0.0 | 2.6 | 0.00 | 0.42 | 0.30 | 87 | 1005.1 |
| 20260506170038 | 60 | 254 | 0.0 | 0.0 | 0.00 | 0.42 | 0.30 | 88 | 1005.2 |
| 20260506164533 | 59 | 284 | 0.0 | 0.0 | 0.01 | 0.42 | 0.30 | 90 | 1005.4 |
| 20260506163028 | 59 | 288 | 0.0 | 0.9 | 0.01 | 0.42 | 0.30 | 90 | 1005.3 |
| 20260506161522 | 59 | 287 | 0.0 | 0.0 | 0.02 | 0.42 | 0.30 | 89 | 1005.3 |
| 20260506160022 | 59 | 309 | 0.0 | 0.0 | 0.03 | 0.42 | 0.30 | 89 | 1005.4 |
| 20260506154520 | 59 | 99 | 0.0 | 0.0 | 0.03 | 0.41 | 0.28 | 90 | 1005.4 |
| 20260506153018 | 58 | 285 | 0.0 | 0.0 | 0.04 | 0.41 | 0.28 | 90 | 1005.4 |
| 20260506151529 | 58 | 236 | 0.0 | 0.0 | 0.03 | 0.40 | 0.28 | 90 | 1005.7 |
| 20260506150015 | 58 | 267 | 0.0 | 0.0 | 0.03 | 0.39 | 0.27 | 90 | 1005.4 |
| 20260506144514 | 57 | 271 | 0.0 | 0.0 | 0.04 | 0.38 | 0.26 | 92 | 1005.2 |
| 20260506143013 | 58 | 220 | 0.0 | 0.0 | 0.00 | 0.00 | 0.25 | 94 | 1005.5 |
| 20260506141511 | 57 | 220 | 0.0 | 0.0 | 0.08 | 0.37 | 0.25 | 93 | 1005.5 |
| 20260506140009 | 57 | 219 | 0.0 | 0.0 | 0.10 | 0.36 | 0.24 | 93 | 1005.5 |
| 20260506134507 | 56 | 236 | 0.0 | 0.0 | 0.12 | 0.34 | 0.22 | 92 | 1005.6 |
| 20260506133005 | 56 | 274 | 0.0 | 0.0 | 0.14 | 0.32 | 0.20 | 91 | 1006.0 |
| 20260506131510 | 56 | 98 | 0.0 | 0.0 | 0.13 | 0.28 | 0.17 | 90 | 1006.3 |
| 20260506130004 | 56 | 78 | 0.0 | 0.0 | 0.11 | 0.26 | 0.14 | 92 | 1006.1 |
| 20260506124501 | 56 | 304 | 0.0 | 0.0 | 0.06 | 0.21 | 0.09 | 94 | 1006.5 |
| 20260506123100 | 55 | 230 | 0.0 | 0.0 | 0.03 | 0.18 | 0.06 | 95 | 1006.1 |
| 20260506121556 | 54 | 91 | 0.0 | 0.0 | 0.01 | 0.16 | 0.04 | 95 | 1006.0 |
| 20260506120052 | 0 | 0.0 | 0.0 | 0.00 | 0.15 | 0.03 | 1006.0 | ||
| 20260506114556 | 0 | 0.0 | 0.0 | 0.00 | 0.15 | 0.03 | 1006.4 | ||
| 20260506113049 | 0 | 0.0 | 0.0 | 0.01 | 0.15 | 0.03 | 1006.3 | ||
| 20260506111540 | 0 | 0.0 | 0.0 | 0.02 | 0.15 | 0.03 | 1006.3 | ||
| 20260506110037 | 0 | 0.0 | 0.0 | 0.03 | 0.15 | 0.03 | 1006.4 | ||
| 20260506104540 | 52 | 93 | 0.0 | 0.0 | 0.03 | 0.15 | 0.03 | 93 | 1006.6 |
| 20260506103036 | 52 | 91 | 0.0 | 0.0 | 0.02 | 0.14 | 0.02 | 93 | 1006.4 |
| 20260506101539 | 52 | 91 | 0.0 | 0.0 | 0.01 | 0.13 | 0.01 | 93 | 1006.2 |
| 20260506100032 | 52 | 91 | 0.0 | 0.0 | 0.00 | 0.12 | 0.00 | 92 | 1006.1 |
| 20260506094530 | 52 | 92 | 0.0 | 0.0 | 0.00 | 0.12 | 0.00 | 92 | 1005.9 |
| 20260506093028 | 52 | 91 | 0.0 | 0.0 | 0.00 | 0.12 | 0.00 | 91 | 1005.9 |
| 20260506091526 | 52 | 91 | 0.0 | 0.0 | 0.00 | 0.12 | 0.00 | 90 | 1006.1 |
| 20260506090024 | 52 | 91 | 0.0 | 0.0 | 0.00 | 0.12 | 0.00 | 90 | 1006.2 |
| 20260506084532 | 53 | 91 | 0.0 | 0.0 | 0.00 | 0.12 | 0.00 | 88 | 1006.7 |
| 20260506083020 | 53 | 91 | 0.0 | 0.0 | 0.00 | 0.12 | 0.00 | 87 | 1006.7 |
| 20260506081523 | 53 | 91 | 0.0 | 0.0 | 0.00 | 0.12 | 0.00 | 86 | 1006.5 |
| 20260506073015 | 54 | 91 | 0.0 | 0.0 | 0.00 | 0.12 | 0.00 | 87 | 1006.5 |
| 20260506071514 | 54 | 91 | 0.0 | 0.0 | 0.00 | 0.12 | 0.00 | 87 | 1006.4 |
| 20260506061506 | 54 | 91 | 0.0 | 0.0 | 0.00 | 0.12 | 0.00 | 87 | 1007.0 |
| 20260506044632 | 55 | 281 | 0.0 | 0.0 | 0.00 | 0.12 | 0.00 | 87 | 1008.2 |
| 20260506043054 | 55 | 281 | 0.0 | 0.0 | 0.00 | 0.12 | 0.00 | 87 | 1008.0 |
| 20260506041551 | 56 | 281 | 0.0 | 0.0 | 0.00 | 0.12 | 0.00 | 86 | 1008.1 |
| 20260506040048 | 56 | 281 | 0.0 | 0.0 | 0.00 | 0.12 | 0.00 | 86 | 1008.4 |
| 20260506034546 | 56 | 281 | 0.0 | 0.0 | 0.00 | 0.12 | 0.12 | 86 | 1008.7 |
| 20260506033044 | 57 | 263 | 0.0 | 0.0 | 0.00 | 0.12 | 0.12 | 86 | 1008.6 |
| 20260506031542 | 57 | 263 | 0.0 | 0.0 | 0.00 | 0.12 | 0.12 | 87 | 1008.4 |
| 20260506030040 | 57 | 115 | 0.0 | 0.0 | 0.00 | 0.12 | 0.12 | 86 | 1008.4 |
| 20260506024536 | 59 | 125 | 0.0 | 0.0 | 0.00 | 0.12 | 0.12 | 87 | 1008.3 |
| 20260506023043 | 59 | 91 | 0.0 | 0.0 | 0.00 | 0.12 | 0.12 | 91 | 1008.2 |
| 20260506021534 | 59 | 98 | 0.0 | 0.0 | 0.00 | 0.12 | 0.12 | 92 | 1007.9 |
| 20260506020031 | 60 | 98 | 0.0 | 0.0 | 0.00 | 0.12 | 0.12 | 92 | 1007.7 |
| 20260506014525 | 60 | 98 | 0.0 | 0.0 | 0.00 | 0.12 | 0.12 | 92 | 1007.6 |
| 20260506013024 | 60 | 98 | 0.0 | 0.0 | 0.00 | 0.12 | 0.12 | 92 | 1007.5 |
| 20260506011522 | 60 | 263 | 0.0 | 0.0 | 0.00 | 0.12 | 0.12 | 92 | 1007.1 |
| 20260506010040 | 60 | 263 | 0.0 | 0.0 | 0.00 | 0.12 | 0.12 | 91 | 1006.9 |
| 20260506004525 | 60 | 263 | 0.0 | 0.0 | 0.00 | 0.12 | 0.12 | 91 | 1006.7 |
| 20260506003020 | 60 | 263 | 0.0 | 0.0 | 0.00 | 0.12 | 0.12 | 91 | 1006.3 |
| 20260506001519 | 61 | 263 | 0.0 | 0.0 | 0.00 | 0.12 | 0.12 | 91 | 1006.3 |